#timestamp,LO_Frequency,Hit,StdDev 
1577790015.1,286047002.8,N
1577790016.0,286047002.8,N
1577790035.8,286046999.9,N
1577790055.6,286047000.0,N
1577790075.5,286047000.2,N
1577790095.3,286047000.6,N
1577790115.2,286047001.0,N
1577790135.9,286046999.8,N
1577790155.7,286047002.2,N
1577790175.6,286047003.9,N
1577790195.4,286047000.2,N
1577790215.3,286047000.8,N
1577790235.1,286046998.4,N
1577790236.0,286046998.4,N
1577790255.8,286046998.2,N
1577790275.7,286047000.8,N
1577790295.5,286046998.3,N
1577790315.3,286046997.1,N
1577790335.2,286046995.7,N
1577790355.0,286046996.2,N
1577790355.9,286046996.2,N
1577790375.8,286046995.2,N
1577790395.6,286046994.9,N
1577790415.4,286046996.3,N
1577790435.3,286046993.7,N
1577790455.1,286046995.6,N
1577790475.8,286046995.9,N
1577790495.7,286046991.7,Y
1577790515.5,286046995.5,P
1577790535.4,286046996.2,N
1577790555.2,286046997.2,N
1577790575.0,286046997.5,N
1577790575.9,286046997.5,N
1577790595.8,286046995.5,Y
1577790615.6,286046998.7,P
1577790635.5,286046998.5,N
1577790655.3,286046999.4,N
1577790675.1,286046998.5,N
1577790695.9,286046996.6,Y
1577790715.7,286046999.3,P
1577790735.5,286046999.3,N
1577790755.4,286046999.5,N
1577790775.2,286046998.9,N
1577790795.1,286046996.6,Y
1577790796.0,286046996.6,P
1577790815.8,286047000.7,N
1577790835.6,286046998.4,N
1577790855.5,286046998.9,N
1577790875.3,286046999.1,N
1577790895.2,286046998.5,N
1577790915.9,286046998.9,N
1577790935.7,286047000.7,N
1577790955.6,286046999.8,N
1577790975.4,286046998.7,N
1577790995.3,286046998.3,N
1577791015.1,286046998.2,N
1577791016.0,286046998.2,N
1577791035.8,286047001.0,N
1577791055.7,286047001.1,N
1577791075.5,286046998.7,N
1577791095.3,286046999.2,N
1577791115.2,286046999.4,N
1577791135.0,286047000.6,N
1577791135.9,286047000.6,N
1577791155.8,286047003.8,Y
1577791175.6,286047001.7,P
1577791225.5,286047004.4,E
1577791235.4,286047000.0,N
1577791255.2,286046997.6,P
1577791275.1,286046998.7,N
1577791276.0,286046998.7,N
1577791295.8,286046999.2,N
1577791315.6,286046999.2,N
1577791335.5,286046996.5,Y
1577791355.3,286046999.4,P
1577791375.2,286046996.7,P
1577791395.0,286046997.7,N
1577791395.9,286046997.7,N
1577791415.7,286046996.7,Y
1577791435.6,286047001.0,P
1577791455.4,286046998.1,N
1577791475.3,286046999.9,N
1577791495.1,286047000.0,N
1577791515.8,286047000.7,N
1577791535.7,286047001.1,N
1577791555.5,286047004.1,Y
1577791575.4,286047005.5,P
1577791595.2,286047005.7,N
1577791615.0,286047002.9,N
1577791615.9,286047002.9,N
1577791635.8,286047003.7,N
1577791655.6,286047005.2,N
1577791675.5,286047006.6,Y
1577791695.3,286047002.4,P
1577791715.1,286047002.8,P
1577791735.9,286046999.9,N
1577791755.7,286047001.0,N
1577791775.5,286047002.8,N
1577791795.4,286046999.8,N
1577791815.2,286046998.5,N
1577791835.1,286046999.4,N
1577791836.0,286046999.4,N
1577791855.8,286046997.3,N
1577791875.6,286046997.4,N
1577791895.5,286046995.8,N
1577791915.3,286046995.7,N
1577791935.1,286046995.2,N
1577791955.9,286046995.3,N
1577791975.7,286046996.7,N
1577791995.6,286046997.4,N
1577792015.4,286046997.9,N
1577792035.2,286046996.7,N
1577792055.1,286046994.9,N
1577792056.0,286046994.9,N
1577792075.8,286046995.0,N
1577792095.6,286046996.0,N
1577792115.5,286046995.6,N
1577792135.3,286046996.1,N
1577792155.2,286046996.2,N
1577792175.9,286046997.9,N
1577792195.7,286046994.9,N
1577792215.6,286046997.6,N
1577792235.4,286046994.9,N
1577792255.2,286046998.0,N
1577792275.1,286046995.9,N
1577792276.0,286046995.9,N
1577792295.8,286046995.7,N
1577792315.7,286046995.6,N
1577792335.5,286046996.1,N
1577792355.3,286046996.2,N
1577792375.2,286046995.9,Y
1577792395.0,286046999.2,P
1577792395.9,286046999.2,N
1577792415.8,286046998.5,N
1577792435.6,286046996.5,Y
1577792455.4,286046998.5,P
1577792475.3,286046998.3,P
1577792495.1,286046998.4,P
1577792515.9,286047000.5,Y
1577792535.7,286047003.6,P
1577792555.5,286047004.0,N
1577792575.4,286047003.0,N
1577792595.2,286047004.0,N
1577792615.0,286047004.4,N
1577792615.9,286047004.4,N
1577792635.8,286047001.6,N
1577792655.6,286047004.0,N
1577792675.5,286047006.8,Y
1577792695.3,286047007.2,P
1577792715.1,286047005.4,N
1577792735.9,286047002.9,N
1577792755.7,286047005.5,Y
1577792775.6,286046998.7,P
1577792795.4,286046999.0,N
1577792815.2,286046997.2,N
1577792835.1,286046997.9,N
1577792836.0,286046997.9,N
1577792855.8,286046997.4,N
1577792875.6,286046995.3,N
1577792895.5,286046997.8,N
1577792915.3,286046997.7,N
1577792935.2,286046998.0,N
1577792955.9,286046997.9,N
1577792975.7,286046997.7,N
1577792995.6,286046996.5,N
1577793015.4,286046997.8,N
1577793035.2,286046997.1,N
1577793055.1,286046995.9,N
1577793056.0,286046995.9,N
1577793075.8,286046997.2,N
1577793095.7,286046999.5,N
1577793115.5,286046997.5,N
1577793135.3,286046997.2,N
1577793155.2,286046997.7,N
1577793175.0,286046999.5,N
1577793175.9,286046999.5,N
1577793195.8,286046996.8,N
1577793215.6,286046994.9,Y
1577793235.4,286046998.6,P
1577793255.3,286046998.4,P
1577793275.1,286046998.9,P
1577793295.8,286046999.2,N
1577793315.7,286046999.6,N
1577793335.5,286046999.2,N
1577793355.4,286046994.9,Y
1577793375.2,286046998.8,P
1577793395.0,286046998.7,P
1577793395.9,286046998.7,P
1577793415.8,286046999.0,Y
1577793435.6,286047000.4,P
1577793455.4,286047002.1,N
1577793475.3,286047002.2,N
1577793495.1,286047002.5,N
1577793515.9,286047001.8,N
1577793535.7,286047004.2,Y
1577793555.5,286047002.2,P
1577793575.4,286047001.9,P
1577793595.2,286047001.6,P
